Flag for Cote d'Ivoire (Ivory Coast) Weather past 2 weeks in Abidjan, Cote d'Ivoire (Ivory Coast)

84 °F

Scattered clouds.

Feels Like: 96 °F
Forecast: N/A
Wind: 10 mph from Southwest

Location: Abidjan Airport

Current Time: Nov 28, 2015 at 5:41:30 PM

Latest Report: Nov 28, 2015 at 5:00 PM

Visibility: N/A

Pressure: 29.83 "Hg

Humidity: 84%

Dew point: 79 °F

Location of AbidjanLocation

Historic Weather in Abidjan — Graph


Abidjan temperature yesterday

Maximum temperature yesterday: 88 °F (at 12:30 PM)
Minimum temperature yesterday: 77 °F (at 5:00 AM)
Average temperature yesterday: 83 °F

Past Weeks' High & Low Weather Summary

High88 °F (Nov 15, 12:00 PM)100% (Nov 17, 9:30 AM)29.95 "Hg (Nov 17, 9:30 AM)
Low73 °F (Nov 18, 4:30 AM)66% (Nov 24, 11:00 AM)29.71 "Hg (Nov 22, 3:30 PM)
Average82 °F85%29.85 "Hg
* Reported Nov 13 4:00 PM — Nov 28 4:30 PM, Abidjan, Weather by CustomWeather, © 2015

Note: Actual official high and low records may vary slightly from our data, if they occured in-between our weather recording intervals... More about our weather records


Abidjan weather history for previous 24 hours

Time TempWeatherWind HumidityBarometerVisibility
4:30 PM
Sat, Nov 28
86 °FScattered clouds.10 mph79%29.80 "HgN/A
4:00 PM86 °FScattered clouds.9 mph79%29.80 "HgN/A
3:30 PM86 °FScattered clouds.10 mph79%29.80 "HgN/A
3:00 PM86 °FScattered clouds.10 mph79%29.83 "HgN/A
2:30 PM86 °FPassing clouds.12 mph75%29.83 "HgN/A
2:00 PM86 °FPassing clouds.10 mph79%29.83 "HgN/A
1:30 PM86 °FScattered clouds.10 mph84%29.86 "HgN/A
1:00 PM86 °FScattered clouds.9 mph79%29.86 "HgN/A
12:30 PM84 °FBroken clouds.8 mph84%29.86 "HgN/A
12:00 PM84 °FPartly sunny.8 mph84%29.89 "Hg5 mi
11:30 AM84 °FBroken clouds.8 mph84%29.89 "Hg5 mi
11:00 AM81 °FRain. Partly sunny.10 mph94%29.89 "Hg1 mi
10:30 AM84 °FPartly sunny.12 mph79%29.89 "HgN/A
10:00 AM86 °FScattered clouds.12 mph75%29.89 "Hg5 mi
9:30 AM86 °FScattered clouds.12 mph79%29.92 "Hg5 mi
9:00 AM86 °FScattered clouds.9 mph75%29.89 "Hg5 mi
8:30 AM84 °FPartly sunny.12 mph79%29.89 "Hg5 mi
8:00 AM84 °FPartly sunny.9 mph84%29.89 "Hg5 mi
7:30 AM82 °FPartly sunny.7 mph89%29.86 "Hg5 mi
7:00 AM82 °FScattered clouds.6 mph89%29.86 "Hg5 mi
6:30 AM81 °FScattered clouds.8 mph89%29.86 "Hg5 mi
6:00 AM81 °FPassing clouds.8 mph89%29.86 "Hg5 mi
5:30 AM81 °FPassing clouds.7 mph89%29.83 "Hg5 mi
5:00 AM81 °FPassing clouds.7 mph89%29.83 "HgN/A
4:30 AM81 °FPassing clouds.5 mph89%29.83 "HgN/A
4:00 AM81 °FPassing clouds.5 mph89%29.83 "HgN/A
3:30 AM81 °FPassing clouds.7 mph89%29.83 "HgN/A
3:00 AM82 °FPassing clouds.7 mph84%29.83 "HgN/A
2:30 AM82 °FPassing clouds.6 mph84%29.86 "HgN/A
2:00 AM82 °FPassing clouds.7 mph84%29.86 "HgN/A
1:30 AM82 °FPassing clouds.7 mph84%29.86 "HgN/A
1:00 AM82 °FPassing clouds.8 mph84%29.86 "HgN/A
12:30 AM82 °FPassing clouds.7 mph84%29.89 "HgN/A
12:00 AM82 °FPassing clouds.7 mph84%29.89 "HgN/A
11:00 PM
Fri, Nov 27
82 °FPassing clouds.8 mph84%29.89 "HgN/A
10:00 PMN/APassing clouds.8 mphN/AN/AN/A
7:00 PM82 °FPassing clouds.9 mph84%29.83 "HgN/A
5:30 PM84 °FBroken clouds.10 mph79%29.80 "HgN/A
5:00 PM84 °FBroken clouds.10 mph79%29.80 "HgN/A
Weather by CustomWeather, © 2015

See weather overviewHow to use our weather pages